This is the latest recevied weather packets stored in our database for station/object XE2B-20. If no packets are shown the sender has not sent any weather packets the latest 10 day(s).
| Time | Temp. | Humidity | Pressure | Rain* | Wind** | Luminosity | Snow |
|---|---|---|---|---|---|---|---|
| 1787902706 | 16.67° C | 40% | 809 hPa | - | - | - | - |
| 1787901207 | 16.67° C | 40% | 809.1 hPa | - | - | - | - |
| 1787899708 | 17.22° C | 39% | 809.1 hPa | - | - | - | - |
| 1787898211 | 17.78° C | 39% | 809.2 hPa | - | - | - | - |
| 1787896712 | 17.78° C | 38% | 809 hPa | - | - | - | - |
| 1787895215 | 18.33° C | 37% | 809 hPa | - | - | - | - |
| 1787893716 | 18.33° C | 37% | 809.1 hPa | - | - | - | - |
| 1787892217 | 18.89° C | 36% | 808.8 hPa | - | - | - | - |
| 1787890719 | 19.44° C | 36% | 808.5 hPa | - | - | - | - |
| 1787889228 | 19.44° C | 35% | 808.2 hPa | - | - | - | - |
| 1787887723 | 20° C | 35% | 807.8 hPa | - | - | - | - |
| 1787886225 | 21.11° C | 35% | 807.6 hPa | - | - | - | - |
| 1787884729 | 21.67° C | 34% | 807 hPa | - | - | - | - |
| 1787883231 | 22.22° C | 34% | 806.7 hPa | - | - | - | - |
| 1787881734 | 22.78° C | 34% | 806.1 hPa | - | - | - | - |
| 1787880236 | 23.89° C | 34% | 805.7 hPa | - | - | - | - |
| 1787878745 | 25.56° C | 33% | 805.5 hPa | - | - | - | - |
| 1787875739 | 31.67° C | 29% | 805.5 hPa | - | - | - | - |
| 1787874249 | 32.22° C | 28% | 805.3 hPa | - | - | - | - |
| 1787872745 | 32.78° C | 28% | 805.2 hPa | - | - | - | - |
| 1787871242 | 33.89° C | 27% | 805.3 hPa | - | - | - | - |
| 1787869746 | 34.44° C | 27% | 805.7 hPa | - | - | - | - |
| 1787868248 | 35.56° C | 27% | 806.1 hPa | - | - | - | - |
| 1787866750 | 33.89° C | 29% | 806.4 hPa | - | - | - | - |
| 1787865260 | 38.33° C | 25% | 806.8 hPa | - | - | - | - |
* Rain since midnight (hover to see other rain measurements)
** Current wind speed in m/s (hover to see current wind gust speed)